CZ-6A DEB, 66790

Orbit data source: Space-Track

CZ-6A DEB, 66790 is space debris in SSO originally from a launch on Fri, 11 Nov 2022 UTC launched from the Taiyaun Space Center, China (TSC). Debris objects in space refer to the collection of defunct objects orbiting the Earth. Examples of debris include non-operational satellites, rocket bodies, and fragments generated from explosions, collisions, or faulty payload assembly.

Loading next visibility...
Identifier
66790, 2022-151AJG
Orbit
SSO
Country
Flag of CNCN / PRC
Related business
Manufacturer
SAST
Mission
Spacecraft
Bus & Motor
Unknown
Mass
Unknown
Launch date (UTC)
2022-11-11 (4 years ago)
Launch vehicle
Unknown
Launch site
Taiyaun Space Center, China (TSC)
Object type
Payload
Rocket body
Debris
Shape & HBR
Unknown shape, 1.1 m
Radar Cross Section
Medium (>0.1 m² and <1 m²)

Expand to show TLE details & history
Last TLE update: 15 hours ago

TLE from 15 hours ago
0 CZ-6A DEB
1 66790U 22151AJG 26228.46660154  .00000913  00000-0  46709-3 0  9993
2 66790  98.8203 234.1355 0042942 116.3516 244.2077 14.17561376175579
Epoch: 2026-08-16T11:11Z
TLE epoch observation values (Epoch: 2026-08-16T11:11:54.373Z)
Latitude
-0.00007°
Longitude
101.29624°
Altitude
850.105 km
Speed
7.421 km/s
True Right ascension
15h 36m 32s
True Declination
0° 00' 00"
Sunlit
Object was in daylight at epoch
Visualization orbit readout
Latitude
Unknown
Longitude
Unknown
Altitude
Unknown
Speed
Unknown
Apparent Right ascension
Unknown
Apparent Declination
Unknown
Sunlit
N/A
Visualization observer readout
Local Sidereal Time
16:39:09
Azimuth
Unknown
Elevation
Unknown
Doppler factor
Unknown
Orbital elements
Apogee altitude
861.735 km
Perigee altitude
799.822 km
Semi-major axis
7,208.916 km
Eccentricity
0.00429
Inclination
98.8203°
RAAN
234.1355°
Arg. of periapsis
116.3516°
True anomaly
243.76568°
Mean anomaly
244.2077°
Eccentric anomaly
243.98659°
Mean motion
3.546 °/min
Orbital period
101.52 mins
BSTAR
0.00046709
Loading maneuver chart data...
Computing Atmospheric mass density...
Loading historical data...
Loading historical data...
Loading historical data...
Loading historical data...
Loading historical data...
Loading historical data...
Loading historical data...

Documentation

Showing up to 5 results
|